Theta_e
308 308 309 308 309 310 310 311 314 315 317 320 326 327 330 333 335 336 338 337 336 336 337 337 337 334 331 331 331 331 331 328 324 330 326 326 327 326 329 331 330 331 327
309 308 308 308 309 309 309 310 312 313 316 318 321 323 326 329 332 333 333 335 334 333 334 335 335 334 333 334 333 331 331 332 328 325 326 324 324 324 325 326 325 327 326
308 307 307 307 307 307 308 310 311 312 314 316 319 320 321 323 327 330 332 333 333 334 333 332 334 334 334 333 331 331 332 331 329 323 323 322 325 320 321 322 323 324 323
306 306 307 306 308 308 309 311 311 312 313 316 318 319 320 319 322 320 326 329 331 331 332 332 333 332 332 333 330 328 329 328 327 321 321 322 322 322 320 320 319 320 321
305 304 304 306 307 307 308 309 309 311 311 313 315 316 316 317 317 313 317 321 325 326 327 327 330 330 327 327 330 328 328 326 325 320 321 319 319 319 319 320 320 320 321
303 303 305 306 306 306 308 308 307 307 308 309 310 313 314 315 307 303 310 317 319 322 323 326 327 326 325 319 317 318 324 327 326 320 319 319 319 319 320 319 319 317 316
302 304 305 305 306 306 307 306 306 305 306 306 308 310 311 313 306 299 302 314 316 318 319 321 324 328 325 328 321 316 315 313 317 327 323 322 321 320 321 319 319 319 320
302 302 304 305 305 306 306 305 305 305 305 305 306 308 309 310 305 299 300 312 315 317 318 320 322 323 320 319 321 322 325 327 326 321 325 328 327 328 324 325 324 323 323
301 302 303 304 304 305 304 304 304 304 305 305 306 307 308 309 303 300 302 310 313 314 317 318 319 316 307 303 314 314 316 321 319 312 310 310 308 307 316 324 320 318 319
301 302 304 304 304 303 303 303 304 305 305 306 306 308 306 307 303 300 303 308 309 312 315 316 306 308 300 299 311 311 310 313 314 314 315 318 314 315 307 321 326 319 321
302 303 303 304 304 304 303 303 303 304 304 304 304 306 306 307 307 300 297 306 307 308 310 312 313 297 297 298 301 308 307 309 308 308 310 314 320 324 325 319 322 324 323
301 302 303 303 303 305 303 303 303 303 302 303 302 303 306 307 302 301 300 300 301 302 305 311 310 299 295 294 296 298 297 299 306 308 309 310 314 319 322 325 322 323 326
302 302 302 302 303 303 302 302 302 302 301 302 302 302 303 306 306 300 299 301 299 301 305 305 299 295 295 297 297 298 296 304 307 309 310 311 314 320 322 325 324 326 325
303 301 301 301 301 302 301 301 300 300 301 302 302 302 303 304 305 305 305 304 300 300 301 304 302 299 298 301 301 307 311 313 311 310 311 314 315 316 318 322 322 322 320
301 301 300 300 299 299 300 300 300 302 301 302 302 302 301 302 304 300 298 301 304 302 301 302 303 304 305 306 308 310 310 308 306 308 308 309 313 314 316 320 320 320 318
301 301 300 299 298 298 297 298 296 295 295 294 293 295 300 298 295 295 295 294 293 292 299 301 303 304 302 305 306 307 307 305 304 305 305 304 307 309 312 315 319 316 315
299 299 298 296 296 296 296 296 295 297 295 295 293 292 292 293 293 292 292 292 291 291 296 299 301 302 304 305 305 305 305 305 305 305 304 304 305 306 307 311 314 315 313
296 295 295 295 295 296 296 295 295 294 293 297 297 294 293 292 291 292 291 291 294 293 297 300 302 302 304 305 304 306 305 304 304 305 305 305 306 306 305 308 311 312 312
296 295 296 297 297 297 298 297 296 295 296 298 300 298 295 293 294 293 291 294 297 299 302 303 304 304 306 305 306 306 306 305 304 305 305 305 305 305 305 306 309 299 303
297 296 295 297 298 298 298 297 297 298 298 299 299 300 300 297 299 301 298 297 296 299 301 303 304 305 305 304 304 305 305 304 304 304 304 305 305 305 304 305 306 307 308
296 297 291 298 298 299 299 298 298 299 298 298 298 297 287 296 299 300 301 301 300 300 300 301 301 301 301 302 301 301 302 302 302 301 302 303 303 302 304 304 304 306 306
297 297 297 296 297 297 296 297 297 297 297 296 297 297 289 298 298 299 298 298 298 298 298 298 298 298 299 299 299 298 297 298 299 299 299 300 301 301 301 302 302 303 304
296 296 296 296 296 293 296 296 295 295 296 296 296 296 296 297 296 296 296 296 296 296 297 296 296 297 297 297 298 297 296 296 296 297 296 297 298 300 299 300 301 301 301
296 296 296 296 295 295 295 294 294 292 294 295 294 294 294 294 294 294 295 295 296 295 294 294 294 294 294 295 295 296 296 295 293 294 296 296 297 297 299 299 299 299 299
296 295 295 295 294 294 294 293 292 293 294 293 293 293 293 293 293 292 292 293 293 293 292 293 292 292 292 293 293 294 291 286 289 288 295 298 298 299 299 299 299 299 299
294 294 293 292 292 294 294 293 292 291 291 292 292 292 291 291 290 290 290 290 291 290 291 290 291 291 290 292 292 288 287 287 290 287 297 299 298 298 298 298 298 297 298
Wind_Speed
6 7 7 7 7 6 6 6 7 6 6 6 5 6 7 8 8 7 6 5 5 5 5 7 7 6 4 5 5 4 5 5 6 4 3 3 3 2 4 4 6 8 9
4 4 3 5 3 4 5 6 7 8 7 6 5 5 6 6 6 7 6 6 6 5 5 7 8 5 6 6 5 7 7 7 6 10 3 2 5 2 4 4 5 6 8
4 5 6 7 5 5 5 6 6 6 7 6 5 5 6 7 6 7 6 5 5 6 5 6 6 5 6 4 6 6 6 5 6 4 5 3 3 2 2 2 5 6 6
3 4 4 3 3 3 4 4 5 5 6 7 5 5 4 5 5 7 6 7 6 4 5 5 5 5 6 6 5 6 5 5 5 4 6 6 4 2 2 3 4 4 7
6 6 5 5 5 5 5 6 6 5 5 5 5 5 5 4 4 6 6 6 6 6 5 4 4 5 8 8 4 4 5 5 4 4 5 3 3 3 5 4 6 5 6
6 6 7 6 7 7 6 6 7 7 6 6 6 6 6 4 7 7 5 4 6 6 7 6 5 4 5 6 7 9 8 6 7 3 2 5 6 4 3 5 5 5 6
4 5 5 5 5 6 6 5 6 7 6 6 6 5 6 6 9 7 7 3 3 4 5 6 6 3 4 3 5 7 9 9 11 5 7 6 5 6 4 4 6 6 6
5 5 5 5 5 5 4 5 5 4 5 5 6 7 6 7 9 7 8 5 4 5 5 5 5 6 6 5 6 8 7 7 7 6 9 9 9 7 8 5 6 7 3
5 5 5 5 6 6 6 6 5 4 4 4 6 7 7 8 10 8 8 6 6 7 6 5 4 4 5 6 5 7 8 8 4 8 10 11 13 11 10 5 6 6 6
7 7 7 7 6 6 7 7 4 3 6 6 8 6 8 7 10 10 3 4 6 5 6 6 4 3 2 1 2 4 7 8 8 9 10 9 9 9 11 12 9 11 8
5 6 7 7 7 7 6 3 4 5 5 6 7 8 8 7 8 11 7 5 5 6 6 6 4 7 7 7 6 6 7 6 11 9 9 8 8 9 8 9 11 11 12
6 6 7 7 6 6 5 6 5 4 4 5 5 7 6 6 7 10 12 11 10 7 9 7 6 8 7 7 5 8 10 7 4 5 6 9 8 7 8 8 10 12 11
8 8 7 7 6 5 5 6 5 3 3 5 4 5 7 6 5 9 12 17 10 5 6 8 9 8 11 7 10 11 8 5 5 5 6 7 8 9 11 8 10 12 11
7 8 7 6 6 4 4 4 4 4 4 4 5 6 6 7 6 4 6 6 7 7 8 6 6 9 11 8 6 4 3 4 5 6 8 8 7 7 9 9 8 7 7
5 5 5 4 5 6 5 4 5 6 6 6 6 5 6 8 7 4 4 6 6 4 4 3 4 4 6 6 5 5 3 4 5 5 6 8 8 7 8 8 8 5 8
5 4 4 5 6 6 6 9 8 12 13 12 14 11 8 14 16 17 15 14 11 5 2 5 7 6 8 8 6 5 4 5 6 5 5 8 8 8 8 6 7 6 8
6 7 6 7 7 6 6 7 10 7 12 15 15 14 12 16 15 16 14 11 10 3 4 5 6 6 7 8 6 4 5 4 4 5 5 6 7 8 7 7 7 7 4
7 10 6 6 6 6 6 8 7 8 10 9 9 8 10 10 11 13 11 5 5 6 5 7 7 8 8 6 3 4 3 4 4 6 6 6 6 7 8 7 7 7 6
7 6 7 7 7 8 7 7 6 7 8 8 7 5 5 8 11 10 5 5 6 8 6 6 7 9 7 4 3 3 3 4 4 5 6 5 5 6 7 7 8 8 7
7 10 9 7 7 6 5 5 6 6 7 7 4 4 5 4 4 5 4 5 5 6 5 6 5 6 3 1 2 3 4 5 4 4 5 5 5 6 7 7 7 7 7
5 6 7 6 7 4 4 5 5 4 4 3 4 4 6 2 4 6 4 3 4 3 2 3 4 3 3 4 3 3 4 4 3 4 5 5 5 5 6 6 7 7 5
5 5 5 5 5 6 6 5 5 4 4 4 4 4 7 4 4 5 6 6 6 5 5 5 4 3 4 4 4 4 5 6 5 5 6 6 6 5 5 5 5 4 3
5 5 5 5 5 6 6 6 5 6 6 6 6 5 6 6 6 7 6 5 5 5 5 4 4 5 4 4 4 4 4 4 5 6 6 6 6 5 4 4 3 1 2
5 5 6 6 7 6 7 7 7 7 7 8 8 8 7 6 6 6 6 6 6 6 5 5 5 6 5 5 4 4 4 4 5 6 8 6 5 5 3 2 1 3 4
6 6 5 5 6 6 6 7 7 6 7 7 8 8 7 7 7 8 7 7 6 7 7 6 5 7 7 8 7 8 7 8 6 5 5 5 4 4 1 1 2 5 6
7 6 6 6 5 5 4 5 7 6 6 7 6 7 7 7 7 7 7 8 7 7 9 6 8 11 10 7 9 10 7 9 7 5 4 3 3 2 2 5 7 5 7
Wind_Direction
47 45 30 14 19 16 27 22 7 345 347 360 359 353 358 354 355 0 340 311 275 269 247 233 220 170 180 181 187 191 208 193 239 256 252 271 297 277 269 206 181 181 180
45 56 41 36 21 19 23 17 3 358 343 344 354 357 354 353 351 352 350 345 309 288 278 246 230 190 190 196 202 199 210 208 218 251 236 265 233 217 246 197 194 198 188
24 61 23 17 352 17 23 15 9 355 350 343 352 3 349 345 352 353 344 325 316 307 270 257 255 231 220 204 209 206 216 215 219 225 257 239 251 174 171 175 192 195 198
78 49 39 355 335 8 347 29 26 354 355 359 346 341 359 341 358 356 351 349 341 347 317 298 275 240 243 230 215 220 229 230 230 231 254 260 247 184 186 176 189 197 191
13 14 3 339 333 338 357 10 3 7 2 351 357 353 345 341 18 11 4 348 344 340 325 321 285 284 269 266 249 229 238 241 221 219 251 256 245 207 209 188 199 183 205
4 351 345 350 347 352 358 338 335 343 343 351 356 346 336 327 337 22 25 2 338 335 326 325 320 297 269 268 268 252 242 235 238 177 210 241 241 243 220 206 177 173 207
333 320 328 326 330 327 327 333 329 327 327 323 320 332 325 321 327 2 1 346 337 327 317 318 314 316 317 304 279 255 260 235 247 235 232 237 247 214 212 215 201 194 209
317 308 297 297 295 292 299 298 293 292 305 306 311 314 312 308 312 326 329 309 305 296 293 304 304 323 14 4 335 308 293 283 247 224 238 239 232 228 209 226 216 226 251
308 296 287 292 301 305 303 293 289 282 295 300 296 298 302 303 305 305 326 319 302 283 281 284 279 295 10 1 328 305 300 295 302 268 252 252 250 246 237 213 225 198 227
296 300 304 298 282 278 276 279 269 260 288 302 299 285 279 283 291 299 297 293 289 289 288 267 203 206 175 102 262 280 287 288 307 316 313 301 274 257 238 234 233 219 222
278 278 282 282 283 276 268 245 261 270 273 282 287 292 294 290 296 294 302 284 267 281 281 281 229 204 202 213 237 240 247 295 299 296 289 277 270 270 251 218 232 230 217
285 282 285 290 281 282 285 283 281 283 287 283 287 295 288 277 260 281 285 286 285 276 274 278 276 240 239 256 235 237 249 254 255 267 278 284 278 260 253 245 234 229 236
300 293 296 292 288 295 293 290 294 302 287 288 290 292 295 291 266 259 270 288 279 247 253 285 293 301 295 276 245 244 249 239 245 246 260 264 270 273 269 256 240 230 230
286 297 299 302 309 302 292 287 288 290 290 279 285 286 289 294 293 283 285 284 258 255 273 289 294 280 273 274 297 266 253 279 283 280 282 276 269 272 271 263 240 226 217
303 292 294 295 298 302 296 276 286 273 243 276 276 271 289 290 282 279 306 310 305 295 285 278 289 281 291 284 274 273 270 301 293 284 280 284 277 267 268 264 256 252 237
310 307 305 308 309 306 303 303 245 248 264 261 262 240 270 267 284 290 291 296 293 270 253 260 269 273 280 279 276 284 274 308 295 290 292 294 283 284 283 273 254 232 248
310 310 304 297 296 296 301 302 305 304 275 277 269 271 245 256 282 287 288 285 281 210 230 259 261 259 259 261 259 264 292 280 267 267 268 276 285 289 290 276 263 240 228
305 297 294 290 284 281 280 292 295 298 303 302 277 264 284 270 270 280 267 250 265 211 229 246 256 258 260 248 227 255 241 254 264 277 276 276 282 283 288 284 274 244 222
306 294 288 284 281 275 276 272 267 268 276 283 291 292 286 270 285 277 255 223 250 253 242 250 257 262 252 238 246 255 259 265 270 279 272 274 283 278 279 276 277 254 237
300 288 292 295 291 283 278 270 274 269 278 279 289 319 324 301 299 285 224 225 231 246 258 257 267 258 245 250 307 309 288 279 274 283 289 298 293 281 276 271 267 268 246
308 306 304 316 320 308 291 283 283 304 355 352 343 337 315 310 350 11 12 17 1 16 8 360 18 346 30 29 9 325 304 301 300 295 295 294 292 291 289 274 268 258 227
311 326 337 343 346 2 1 8 11 353 358 4 348 339 344 6 11 23 36 30 27 24 25 10 9 2 18 10 342 319 322 310 307 296 294 294 291 296 296 282 266 258 194
349 357 2 8 2 1 11 16 21 10 9 10 1 4 10 27 31 34 26 10 17 16 9 1 357 3 359 344 325 309 302 296 298 299 293 283 289 292 298 299 280 256 143
356 9 19 25 21 21 21 26 24 21 17 20 23 27 25 21 17 16 9 2 5 14 7 351 350 348 339 337 318 305 286 285 280 271 283 277 281 281 287 294 338 82 88
26 27 25 28 36 22 21 29 17 18 24 27 29 23 10 2 10 15 8 2 2 6 2 357 352 346 348 347 346 335 319 301 287 289 290 289 268 250 216 130 75 75 82
7 7 12 16 15 12 16 18 16 13 12 15 21 18 14 15 11 10 6 1 360 9 6 355 0 9 360 350 351 342 343 350 348 321 315 337 359 29 74 79 77 75 76